User: anonymous   Login
Location: Unspecified
(0.0000°N, 0.0000°E)
Time: 17:20:50
(UTC+00:00)
Language:

LATINSAT B - Orbit

View from above orbital plane
View from above orbital plane
View from above satellite
View from above satellite

Ground track
Ground track

The orbit data is extracted from the following two-line orbital elements,

1 27606U 02058B   21025.49271446 -.00000059  00000-0  12347-4 0  9999
2 27606  64.5568 135.6811 0039936  99.4631 261.0987 14.72326904971956
Epoch (UTC): 25 January 2021 11:49:30
Eccentricity: 0.0039936
inclination: 64.5568°
perigee height: 625 km
apogee height: 682 km
right ascension of ascending node: 135.6811°
argument of perigee: 99.4631°
revolutions per day: 14.72326904
mean anomaly at epoch: 261.0987°
orbit number at epoch: 97195

The dashed part of the orbit path shows where the satellite is in the earth's shadow,  

DLR